Wind_Speed
8 7 8 7 5 6 6 5 4 3 2 1 0 1 0 1 2 2 3 3 4 4 4 5 5 6 6 6 6 6 7 7 7 7 7 6 6 5 4 3 3 3 3 3 4 6 7 8 10
7 6 7 5 5 7 6 5 3 2 2 2 2 2 2 2 2 2 3 4 4 4 4 4 4 5 4 4 4 4 5 5 6 6 6 6 6 6 5 4 4 3 3 2 3 4 5 6 7
5 5 5 4 5 5 5 3 3 2 2 2 2 2 2 2 2 3 4 4 5 5 5 5 5 5 5 4 3 3 3 4 4 4 5 5 5 5 5 5 4 4 3 3 2 3 4 4 5
3 3 3 4 3 3 3 3 2 2 3 3 3 3 3 2 3 4 5 5 6 7 7 7 7 7 6 6 5 4 4 3 3 3 3 3 4 4 5 5 4 4 4 3 3 3 3 4 4
2 2 3 3 4 3 3 3 3 4 4 4 4 3 3 3 3 4 6 6 7 8 9 9 9 9 9 8 8 7 6 5 4 3 3 2 2 3 3 4 4 4 4 4 4 4 4 4 4
2 2 2 3 4 4 5 5 5 6 7 7 6 5 4 4 4 5 6 7 8 9 10 11 11 11 11 11 10 10 9 9 8 7 5 5 4 3 2 2 3 3 4 4 4 4 4 4 4
3 2 4 6 6 7 7 7 7 8 9 9 9 7 7 7 7 7 8 9 9 10 11 12 13 13 14 13 13 13 12 12 11 10 9 8 7 6 4 3 2 2 3 3 4 4 4 4 4
5 5 6 7 7 10 11 11 11 11 11 12 12 11 10 10 10 11 11 12 12 12 12 13 14 15 15 16 16 16 15 15 14 14 13 12 10 9 8 7 5 4 2 2 3 3 4 4 4
7 6 7 9 11 12 13 14 14 14 15 15 15 15 15 15 14 14 15 15 16 16 16 17 16 16 17 18 18 18 18 18 17 17 17 15 14 13 12 10 9 7 5 4 3 2 3 3 3
9 8 10 13 15 15 16 17 18 17 18 19 19 19 19 19 19 18 19 19 19 20 20 21 21 21 20 20 20 21 21 21 21 21 20 19 18 16 16 14 12 11 9 8 6 5 4 3 3
12 12 13 15 17 18 18 19 20 20 21 22 23 23 23 24 24 24 23 23 24 24 24 24 25 25 25 24 24 24 24 25 25 25 25 23 21 19 18 16 15 14 13 12 10 9 7 6 5
15 16 17 18 20 21 21 22 24 24 25 26 26 27 27 27 28 28 28 28 28 28 28 28 28 28 28 29 29 28 28 28 29 29 28 27 25 23 21 19 19 18 17 16 14 13 11 10 9
19 20 22 23 24 25 26 27 27 28 29 29 30 30 31 31 31 31 32 32 32 32 32 32 32 32 32 32 32 32 31 31 31 31 31 30 28 25 24 23 22 21 21 20 19 17 15 14 13
23 25 26 27 28 29 29 29 30 31 31 32 32 33 33 34 34 35 35 35 36 36 37 37 37 37 36 36 36 35 35 35 34 34 32 32 32 30 28 28 26 25 24 23 22 21 19 18 16
25 27 29 29 30 29 30 30 30 32 33 34 34 35 35 36 36 36 37 38 39 39 40 40 41 42 41 41 41 41 40 37 36 37 36 36 36 34 33 32 30 28 27 26 25 24 22 21 19
26 28 29 30 29 29 32 33 31 33 34 35 35 36 36 36 37 37 37 39 40 41 41 42 43 44 45 45 46 46 45 44 42 39 39 38 38 38 37 35 34 32 30 29 27 26 25 24 22
24 23 26 33 32 32 33 34 32 33 33 34 35 36 36 36 36 37 37 38 40 41 42 43 43 44 45 46 47 48 48 48 46 45 42 41 39 38 39 38 36 35 33 32 31 29 28 27 25
23 25 26 35 36 35 35 34 33 32 32 33 33 34 35 36 36 36 37 38 39 40 41 42 43 44 45 46 47 48 48 49 48 47 45 44 42 40 39 38 37 37 36 34 33 32 31 30 28
24 25 28 34 34 33 34 33 31 31 31 31 32 33 33 34 36 36 36 37 38 38 39 40 41 42 43 45 46 47 47 48 48 48 47 46 45 44 43 40 38 38 36 35 34 33 32 32 30
25 25 26 29 28 29 30 30 28 27 28 28 29 31 32 32 33 34 34 35 35 36 37 38 39 40 41 43 44 45 46 47 48 48 47 46 46 44 43 42 40 38 36 35 33 32 31 30 30
22 22 23 25 27 26 26 26 25 23 24 25 26 28 29 29 30 30 30 31 31 31 32 33 34 35 37 38 40 42 43 45 46 47 47 46 46 44 43 41 40 38 37 35 33 32 31 31 29
21 21 21 22 23 23 22 24 24 23 23 23 24 25 25 25 25 25 25 24 25 26 28 29 30 31 32 33 34 36 39 40 41 43 44 44 44 43 41 42 41 39 37 36 33 32 31 30 29
19 20 20 19 18 18 19 22 24 24 24 24 24 23 23 22 20 19 19 20 21 21 23 23 24 24 25 26 28 29 32 34 36 38 39 39 40 40 39 39 39 38 37 36 34 33 31 30 29
17 17 16 15 15 17 18 21 24 22 23 22 21 21 20 19 17 17 17 17 18 19 19 19 19 19 20 21 22 24 25 27 29 32 34 35 36 36 36 37 37 36 35 36 35 34 32 31 31
15 15 15 14 16 18 19 19 20 20 20 19 19 18 18 17 16 16 17 16 17 17 17 17 16 16 17 18 18 18 20 21 22 25 27 28 30 31 33 34 35 35 33 33 34 35 33 32 32
14 14 13 10 8 14 15 16 17 17 17 17 18 17 17 17 17 17 17 17 17 17 16 16 15 15 15 14 14 14 14 14 15 18 21 23 25 27 29 31 32 34 33 33 32 33 33 31 30
13 12 12 10 9 10 15 15 15 16 16 17 17 17 17 17 18 18 18 18 19 19 18 17 16 15 15 14 13 11 10 10 11 13 16 19 20 23 25 27 29 31 32 32 32 33 33 33 31
13 12 12 11 11 8 13 15 16 17 17 17 17 18 18 18 19 19 20 20 21 21 20 19 18 16 16 15 14 12 10 9 9 9 10 13 16 19 21 23 25 28 29 30 31 31 32 33 31
14 13 13 12 12 11 12 14 15 16 16 17 17 18 18 18 19 20 20 21 22 22 22 21 19 17 16 15 14 14 12 10 8 7 6 7 10 13 15 18 21 24 25 27 28 28 29 30 31
14 14 14 14 13 12 13 13 14 15 16 16 17 18 18 19 19 20 21 22 22 22 23 22 22 20 18 16 15 14 14 12 9 7 6 5 5 7 10 13 15 18 21 23 25 26 28 29 31
Wind_Direction
82 87 85 84 85 76 67 65 64 61 63 69 354 283 132 200 192 200 187 176 168 156 147 141 138 134 128 119 110 104 101 99 98 96 97 97 98 101 112 132 154 172 185 198 206 210 218 223 226
75 81 86 87 74 72 69 63 60 34 9 357 337 324 324 273 249 226 215 214 213 200 181 175 168 161 154 146 133 123 116 110 106 102 100 99 95 94 100 113 126 142 160 179 192 195 203 211 215
72 73 86 85 72 69 68 63 51 18 349 329 328 334 329 303 274 249 238 239 241 238 221 209 203 197 191 186 179 166 150 132 122 115 110 105 99 96 95 100 112 123 132 145 163 174 183 194 201
59 52 60 58 47 50 43 21 12 355 332 326 330 330 328 316 284 260 255 252 253 256 250 238 230 223 218 216 216 213 203 188 167 148 136 125 115 106 101 97 102 109 117 123 132 146 161 174 182
8 14 15 7 2 1 358 336 328 322 314 313 316 318 330 334 305 279 266 260 258 260 262 257 250 243 237 233 231 231 229 228 225 218 204 186 161 136 118 105 98 98 104 112 119 126 137 148 162
323 352 348 317 327 330 318 315 310 300 300 302 306 311 314 316 311 298 283 273 268 265 266 265 261 256 250 246 244 242 241 242 242 240 237 231 221 203 171 137 114 99 99 103 111 118 125 136 148
292 283 270 285 299 300 292 292 291 292 292 293 297 298 298 298 297 294 291 283 275 271 270 270 269 265 260 255 252 250 249 248 247 245 243 239 236 232 224 206 175 139 114 106 106 115 120 130 140
278 275 275 285 278 281 284 286 286 287 289 286 286 287 287 286 285 287 287 287 282 277 273 271 270 269 266 260 255 253 252 252 252 249 246 242 239 238 235 231 219 204 182 150 121 116 122 132 139
278 270 270 272 274 276 280 282 280 281 281 280 280 280 280 278 278 281 282 283 283 280 277 273 270 267 264 262 258 255 252 252 252 252 248 245 242 239 238 237 235 230 224 215 196 161 147 148 151
281 277 263 264 275 277 280 283 282 278 277 280 279 278 277 277 276 276 276 275 275 275 275 275 272 267 264 262 258 256 254 252 251 251 249 246 243 242 241 238 238 238 237 233 227 218 200 185 173
287 282 275 278 282 282 283 284 284 282 280 280 280 277 275 275 276 275 274 272 271 271 271 271 271 270 266 263 260 256 253 251 250 250 248 246 243 241 242 239 239 240 241 241 237 233 225 215 205
289 289 288 287 288 290 289 288 288 287 285 283 281 280 278 276 275 273 272 271 270 268 268 267 268 269 268 266 263 260 256 253 251 250 250 248 243 240 239 240 242 241 241 242 242 238 234 228 223
290 290 291 292 292 293 293 293 292 290 288 286 284 282 280 279 277 274 272 271 270 268 268 268 267 266 265 265 265 263 262 258 257 254 251 248 247 245 241 240 240 242 241 242 243 241 240 236 231
292 293 293 294 294 295 295 295 295 293 290 289 286 284 282 280 278 276 274 273 271 270 268 267 266 266 264 265 266 266 266 265 263 257 254 250 248 248 245 242 241 242 241 242 243 242 241 240 237
293 294 295 295 295 296 296 296 296 293 292 289 287 285 282 280 279 277 275 274 272 271 270 268 268 267 265 265 265 265 265 265 265 264 259 255 248 247 246 244 244 244 243 242 242 242 241 240 238
296 300 302 299 300 299 299 299 296 293 291 289 287 285 282 280 279 278 277 275 274 273 271 271 270 268 267 266 266 265 265 265 265 265 263 260 254 249 248 247 246 245 243 242 241 242 242 240 239
306 307 299 296 301 304 302 299 297 294 291 289 287 285 284 282 281 280 279 278 277 276 275 273 272 270 269 268 267 267 267 267 266 266 265 263 260 256 253 250 249 248 245 243 241 240 241 240 239
294 293 287 290 301 303 301 299 298 296 294 293 291 289 287 286 285 283 282 281 280 279 278 277 274 273 271 269 268 267 267 268 268 267 266 264 263 260 256 254 253 253 250 246 244 243 241 239 239
293 291 288 291 300 300 300 301 301 299 297 296 294 293 291 290 289 287 286 284 282 281 280 279 277 275 272 270 268 267 266 266 266 266 266 264 261 260 258 256 256 254 252 249 248 247 243 240 239
296 296 295 297 304 304 304 305 305 303 301 300 298 296 296 294 293 292 290 288 286 284 284 282 280 278 274 271 269 268 267 265 264 264 264 263 261 259 259 258 256 256 253 251 250 250 246 244 242
302 305 306 306 310 309 309 310 312 312 309 307 305 303 300 298 297 296 294 292 290 288 287 286 283 280 277 274 270 268 267 267 265 263 262 262 261 258 258 258 256 256 255 252 252 252 248 245 243
309 313 313 313 315 315 320 319 323 324 320 318 315 313 311 308 305 303 300 298 296 294 293 292 289 284 279 276 273 269 267 266 264 261 260 260 259 258 257 255 256 254 252 252 252 250 248 245 244
315 317 317 316 318 321 327 326 327 330 326 324 323 323 322 321 318 314 311 308 306 304 303 302 298 292 287 282 278 274 270 266 263 260 257 256 256 256 255 253 255 253 250 248 248 248 247 244 240
320 321 321 321 331 337 337 330 329 334 331 331 332 332 334 336 334 332 327 324 320 317 315 314 308 303 297 292 286 281 275 269 263 258 255 253 252 252 252 250 249 249 248 247 246 246 247 243 241
330 333 337 341 340 332 336 334 336 338 339 341 345 348 351 353 354 352 348 344 340 336 333 329 322 317 311 304 296 288 280 272 264 258 254 251 248 247 246 247 245 244 243 244 245 244 245 242 240
343 345 348 346 324 322 342 346 348 348 349 353 358 359 359 1 2 2 2 0 358 357 355 351 346 338 332 325 315 302 289 279 269 260 254 250 246 243 242 242 242 243 243 241 241 240 240 239 239
352 355 357 355 354 340 348 1 1 360 2 5 7 8 11 14 15 16 16 15 13 10 8 5 1 357 352 347 341 331 313 297 285 270 257 251 245 242 242 242 241 241 241 241 238 237 237 236 237
7 7 8 11 15 5 351 4 7 10 14 16 17 19 22 22 22 22 20 19 18 16 15 12 9 5 3 1 359 353 349 332 311 293 273 257 249 245 243 241 239 240 242 242 240 238 236 236 238
20 20 21 24 27 19 11 15 15 17 18 19 20 22 24 24 24 23 23 21 21 20 18 16 16 15 13 10 9 7 3 357 349 337 314 278 255 249 245 242 240 237 238 240 240 240 238 238 239
28 29 29 29 31 30 28 27 22 20 20 20 21 24 26 26 26 25 24 24 24 24 25 26 26 25 23 22 20 18 15 12 10 1 348 328 293 263 251 246 244 242 242 243 243 243 242 241 240
Height
5919 5919 5918 5919 5919 5918 5916 5916 5916 5916 5916 5916 5915 5914 5915 5915 5915 5917 5915 5914 5915 5914 5914 5914 5914 5914 5914 5914 5914 5913 5913 5912 5911 5911 5910 5909 5909 5908 5908 5907 5907 5907 5906 5906 5907 5907 5907 5908 5909
5921 5921 5921 5920 5919 5918 5918 5918 5917 5917 5917 5916 5915 5915 5915 5915 5915 5915 5915 5915 5915 5915 5915 5915 5915 5915 5915 5915 5915 5914 5914 5913 5913 5912 5911 5911 5910 5909 5908 5908 5907 5907 5907 5906 5906 5907 5907 5907 5908
5923 5922 5923 5922 5920 5920 5919 5919 5918 5918 5917 5917 5917 5916 5916 5916 5916 5915 5915 5915 5915 5915 5915 5915 5915 5915 5915 5915 5915 5915 5914 5914 5913 5913 5912 5912 5911 5910 5909 5909 5908 5907 5907 5907 5906 5906 5906 5907 5907
5924 5924 5923 5923 5921 5921 5920 5920 5919 5919 5918 5918 5918 5917 5915 5916 5915 5915 5915 5915 5915 5915 5915 5915 5915 5915 5915 5915 5915 5915 5915 5914 5914 5914 5913 5912 5912 5911 5910 5910 5909 5908 5907 5907 5906 5906 5906 5906 5907
5925 5925 5924 5922 5922 5922 5921 5920 5920 5919 5919 5918 5918 5917 5916 5916 5915 5914 5914 5914 5914 5915 5914 5914 5914 5914 5914 5914 5914 5914 5914 5914 5914 5914 5913 5913 5912 5912 5911 5910 5910 5909 5908 5907 5907 5907 5906 5906 5907
5925 5925 5924 5923 5922 5922 5921 5921 5920 5920 5919 5918 5918 5918 5916 5916 5915 5914 5914 5913 5913 5913 5913 5913 5913 5913 5912 5912 5913 5913 5913 5913 5913 5913 5913 5913 5912 5912 5911 5911 5910 5909 5909 5908 5907 5907 5907 5906 5907
5926 5926 5925 5924 5923 5922 5922 5921 5920 5919 5918 5918 5918 5917 5915 5915 5914 5914 5913 5912 5912 5912 5912 5911 5911 5911 5911 5911 5911 5911 5911 5911 5912 5912 5912 5912 5912 5911 5911 5911 5910 5910 5909 5909 5908 5908 5907 5907 5907
5925 5925 5923 5922 5922 5922 5921 5920 5920 5919 5918 5917 5916 5915 5914 5914 5913 5912 5912 5911 5910 5910 5910 5909 5909 5908 5908 5908 5908 5908 5909 5909 5909 5910 5910 5910 5910 5910 5910 5910 5910 5910 5909 5909 5909 5908 5908 5908 5907
5923 5925 5923 5922 5921 5921 5919 5919 5919 5918 5916 5914 5914 5913 5912 5911 5911 5910 5909 5909 5908 5908 5907 5906 5906 5905 5905 5905 5905 5905 5905 5906 5906 5907 5907 5908 5908 5908 5908 5908 5909 5909 5909 5909 5909 5908 5908 5908 5908
5922 5923 5922 5921 5920 5919 5918 5917 5916 5916 5914 5912 5911 5910 5909 5908 5907 5906 5906 5905 5904 5904 5903 5903 5902 5901 5901 5901 5902 5901 5901 5902 5902 5903 5903 5904 5905 5905 5905 5906 5907 5907 5907 5908 5908 5908 5908 5908 5908
5920 5920 5920 5919 5917 5917 5916 5914 5913 5912 5911 5909 5908 5906 5905 5904 5903 5902 5901 5900 5900 5899 5899 5898 5897 5897 5896 5896 5896 5896 5897 5897 5897 5898 5898 5899 5900 5901 5902 5903 5904 5905 5905 5906 5906 5907 5907 5907 5908
5918 5917 5916 5915 5914 5913 5912 5910 5909 5907 5906 5904 5902 5901 5900 5899 5897 5896 5895 5894 5894 5893 5893 5892 5892 5891 5891 5890 5890 5890 5890 5891 5891 5892 5893 5893 5894 5896 5898 5899 5899 5901 5902 5903 5903 5904 5905 5906 5907
5915 5914 5913 5911 5910 5909 5907 5906 5904 5902 5900 5898 5896 5895 5893 5892 5891 5890 5889 5888 5887 5887 5886 5886 5885 5885 5884 5884 5884 5884 5884 5884 5885 5885 5886 5887 5889 5891 5893 5894 5896 5897 5898 5899 5900 5901 5902 5904 5905
5911 5910 5909 5907 5905 5903 5902 5900 5899 5896 5893 5891 5889 5887 5886 5884 5883 5882 5881 5880 5879 5878 5878 5878 5877 5877 5877 5876 5876 5876 5877 5877 5878 5879 5879 5880 5882 5884 5886 5889 5890 5891 5893 5895 5896 5898 5899 5900 5901
5908 5906 5904 5902 5900 5899 5897 5896 5893 5889 5886 5884 5882 5880 5878 5876 5875 5873 5872 5871 5870 5869 5869 5869 5869 5868 5868 5868 5868 5868 5869 5869 5870 5871 5872 5874 5875 5876 5879 5882 5884 5886 5887 5889 5891 5893 5895 5896 5898
5904 5902 5899 5897 5895 5893 5892 5889 5887 5883 5880 5877 5874 5872 5870 5868 5866 5865 5864 5862 5861 5860 5859 5859 5859 5859 5859 5859 5859 5859 5860 5861 5862 5863 5865 5866 5868 5869 5871 5875 5877 5879 5881 5883 5885 5887 5889 5891 5893
5901 5899 5895 5890 5889 5887 5885 5882 5880 5876 5873 5870 5867 5864 5862 5860 5858 5857 5855 5853 5852 5851 5850 5849 5849 5848 5848 5848 5848 5849 5850 5851 5852 5854 5856 5858 5860 5861 5864 5866 5869 5872 5874 5876 5878 5881 5883 5885 5887
5899 5896 5892 5885 5883 5881 5878 5875 5873 5870 5866 5863 5860 5857 5854 5852 5849 5848 5846 5844 5842 5841 5840 5839 5838 5838 5838 5838 5838 5838 5839 5840 5842 5844 5847 5849 5851 5853 5856 5857 5860 5863 5867 5869 5871 5873 5876 5878 5881
5895 5892 5889 5882 5880 5877 5872 5868 5866 5863 5860 5856 5853 5850 5847 5844 5841 5839 5837 5835 5833 5831 5829 5828 5827 5827 5826 5826 5826 5827 5828 5829 5831 5834 5836 5839 5842 5844 5847 5850 5852 5855 5858 5861 5864 5866 5868 5871 5874
5890 5887 5884 5878 5875 5871 5867 5863 5860 5857 5853 5851 5847 5843 5840 5837 5834 5831 5829 5826 5824 5822 5820 5817 5816 5815 5814 5814 5814 5815 5816 5817 5820 5822 5825 5828 5832 5835 5837 5840 5844 5847 5850 5853 5856 5859 5861 5864 5867
5885 5882 5879 5874 5870 5866 5863 5858 5855 5852 5849 5845 5842 5838 5834 5831 5827 5824 5821 5818 5816 5813 5811 5808 5806 5804 5803 5803 5803 5803 5804 5805 5808 5810 5813 5817 5820 5824 5828 5831 5834 5837 5841 5845 5848 5851 5854 5857 5859
5881 5878 5875 5871 5867 5862 5859 5855 5851 5848 5844 5841 5837 5833 5829 5825 5821 5818 5815 5812 5809 5806 5803 5800 5798 5796 5794 5793 5792 5792 5793 5794 5796 5798 5801 5805 5809 5813 5817 5821 5824 5829 5833 5836 5840 5844 5846 5849 5852
5878 5874 5871 5867 5864 5860 5856 5853 5848 5845 5841 5837 5833 5829 5825 5821 5817 5814 5810 5807 5804 5801 5797 5794 5791 5788 5786 5784 5783 5783 5783 5784 5785 5787 5790 5794 5798 5802 5806 5811 5815 5820 5824 5828 5832 5836 5838 5841 5844
5875 5872 5868 5865 5861 5858 5856 5853 5847 5843 5839 5835 5831 5826 5822 5818 5814 5810 5807 5803 5800 5796 5793 5789 5786 5783 5780 5778 5777 5775 5775 5775 5776 5778 5781 5784 5788 5792 5796 5801 5805 5810 5815 5819 5823 5827 5830 5833 5836
5873 5870 5866 5862 5859 5857 5855 5852 5848 5843 5838 5834 5830 5825 5821 5817 5813 5809 5805 5802 5798 5794 5790 5786 5783 5779 5776 5774 5772 5770 5769 5769 5769 5771 5773 5776 5779 5782 5787 5791 5796 5801 5805 5809 5813 5818 5821 5824 5828
5871 5869 5866 5863 5860 5857 5854 5851 5848 5843 5838 5834 5829 5825 5821 5817 5814 5809 5805 5801 5797 5793 5789 5785 5781 5777 5774 5771 5769 5767 5765 5765 5765 5765 5767 5769 5771 5775 5779 5783 5787 5792 5796 5800 5804 5808 5812 5815 5818
5871 5867 5865 5862 5859 5857 5853 5851 5847 5843 5839 5834 5830 5826 5822 5818 5815 5810 5806 5802 5797 5793 5789 5785 5781 5777 5774 5770 5767 5765 5763 5762 5761 5761 5762 5764 5766 5769 5772 5776 5779 5784 5788 5791 5795 5799 5802 5806 5809
5871 5868 5865 5862 5859 5857 5854 5851 5847 5843 5839 5836 5832 5828 5824 5820 5816 5812 5808 5803 5799 5794 5790 5786 5782 5778 5774 5771 5768 5765 5763 5761 5760 5759 5759 5760 5762 5764 5766 5769 5773 5776 5780 5783 5787 5789 5793 5797 5801
5871 5868 5865 5862 5859 5857 5854 5854 5849 5845 5842 5838 5835 5831 5827 5823 5819 5815 5810 5806 5801 5797 5792 5788 5783 5779 5776 5772 5769 5766 5763 5761 5759 5758 5758 5758 5759 5760 5761 5764 5767 5770 5773 5776 5779 5782 5785 5789 5792
5872 5869 5866 5864 5861 5858 5856 5856 5850 5847 5844 5841 5837 5833 5829 5825 5822 5817 5813 5809 5804 5800 5795 5790 5786 5782 5778 5774 5771 5767 5764 5762 5760 5759 5758 5758 5757 5757 5758 5760 5762 5764 5767 5769 5772 5775 5778 5781 5785